Showing default

GONETS D1 9, 27060

Orbit data source: Space-Track

GONETS D1 9, 27060 is a payload satellite owned by Gonets (CIS) in LEO that was launched on Fri, 28 Dec 2001 UTC via a TSIKLON-3 launch vehicle from the Plesetsk Missile And Space Complex (PKMTR). Payload-class satellites include a variety of spacecraft equipped with specific instruments for various scientific and technological missions. These include communications satellites like Starlink; space stations such as the ISS; scientific satellites like the Hubble; Earth observation satellites from companies like Planet Labs, Umbra, and HawkEye 360; GPS; miniature CubeSats for education and research; and military/defense satellites.

Loading next visibility...
Identifier
27060, 2001-058F
Orbit
LEO
Last TLE update
6 hours ago
Origin
Manufacturer
NPO PM
Mission
Non-operational Civil Communications
Bus & Motor
STRELA-3, Unknown motor
Mass
225 kg wet, 225 kg dry
Launch date (UTC)
2001-12-28 (24 years ago)
Launch vehicle
TSIKLON-3
Launch site
Plesetsk Missile And Space Complex (PKMTR)
Object type
Payload
Rocket body
Debris
Shape & HBR
Cyl + 1 Ant, 7 m
Radar Cross Section
1.798 m², Medium (>0.1 m² and < 1m²)

Expand to show TLE details & history

TLE from 6 hours ago
0 GONETS D1 9
1 27060U 01058F   25182.93949556  .00000017  00000-0  36752-4 0  9992
2 27060  82.5399  60.9800 0009035  26.2516 333.9032 12.63053000 83616
Epoch: 2025-07-01T22:32Z
TLE epoch observation values (Epoch: 2025-07-01T22:32:52.416Z)
Latitude
0.00001°
Longitude
162.53385°
Altitude
1,406.779 km
Speed
7.16 km/s
True Right ascension
04h 03m 55s
True Declination
0° 00' 00"
Sunlit
Object was in daylight at epoch
Visualization orbit readout
Latitude
78.13413°
Longitude
-159.30395°
Altitude
1,419.511 km
Speed
7.159 km/s
Apparent Right ascension
04h 54m 30s
Apparent Declination
29° 19' 10"
Sunlit
Object is in daylight
Visualization observer readout
Local Sidereal Time
16:22:00
Azimuth
352.446° N
Elevation
-20.354°
Doppler factor
1
Orbital elements
Apogee altitude
1,414.724 km
Perigee altitude
1,400.655 km
Semi-major axis
7,785.827 km
Eccentricity
0.0009
Inclination
82.5399°
RAAN
60.98°
Arg. of periapsis
26.2516°
True anomaly
Unknown
Mean anomaly
333.9032°
Eccentric anomaly
Unknown
Mean motion
3.15927 °/min
Orbital period
113.95 mins
BSTAR
0.000036752
Loading maneuver chart data...
Loading SW <> Apogee altitude chart data...
Loading historical data...
Loading historical data...
Loading historical data...
Loading historical data...
Loading historical data...
Loading historical data...
Loading historical data...

GONETS D1 9 Visibility forecast

Observer location: undefined°, undefined°

Span
Click to sort rows by Start time (UTC) header in descending order
Start Az.
Max El. time (UTC)
Max El. Az.
Max El.
End time (UTC)
End Az.
14 mins2025-07-02 04:52:33.685Z334.656° NNW2025-07-02 04:59:33.685Z270.345° WNW31.317°2025-07-02 05:06:33.685Z211.08° SW
14 mins2025-07-02 15:45:33.685Z152.46° SSE2025-07-02 15:52:33.685Z79.14° E34.554°2025-07-02 15:59:33.685Z20.75° NNE
14 mins2025-07-02 17:40:33.685Z225.101° WSW2025-07-02 17:46:33.685Z279.617° WNW31.416°2025-07-02 17:54:33.685Z352.96° N
8 mins2025-07-03 01:48:33.685Z36.19° NE2025-07-03 01:51:33.685Z60.257° ENE16.372°2025-07-03 01:56:33.685Z98.754° ESE
14 mins2025-07-03 03:41:33.685Z353.398° N2025-07-03 03:47:33.685Z10.626° NNE44.691°2025-07-03 03:55:33.685Z173.319° S
|